Location: Champignolles
(47.0543°N, 4.5663°E)
Time: 14:40:32
(UTC+00:00)

H-2A R/B - Pass Details

Date: 30 November 2020
Orbit: 578 x 654 km, 98.5° (Epoch: 26 January)

Event Time Altitude Azimuth Distance (km) Brightness Sun altitude
Exits shadow 17:35:03 - 7° (N) 2,832 5.2 -16.5°
Reaches altitude 10° 17:37:17 10° 360° (N) 1,945 4.5 -16.9°
Maximum altitude 17:41:12 39° 291° (WNW) 920 3.4 -17.5°
Drops below altitude 10° 17:45:10 10° 223° (SW) 1,973 5.5 -18.2°
Sets 17:47:28 0° 216° (SW) 2,887 6.3 -18.6°
